When you browse on this site, cookies collect data to enhance your experience and personalize the content and advertising you see.
Visit our Privacy Policy to learn more. By continuing to use the site, you agree to this use of cookies and data.
  • In Deutschland
  • Länderverzeichnis
  • Für 7 Tage
  • Wassertemperatur
  • Wetterkarte
  • Widgets
  • user-avatar
    Anmelden

    Stündliche Wetter Qala i Naw

    Heute, 19 September, Donnerstag

    Zeit Temperatur Niederschläge Wind Luftdruck Luftfeuchtigkeit
    00:00 +21°C° 0 mm 1 m/S 683 mmHg 15%
    01:00 +20°C° 0 mm 1 m/S 683 mmHg 16%
    02:00 +20°C° 0 mm 1 m/S 682 mmHg 17%
    03:00 +19°C° 0 mm 1 m/S 682 mmHg 18%
    04:00 +18°C° 0 mm 1 m/S 682 mmHg 20%
    05:00 +20°C° 0 mm 1 m/S 683 mmHg 18%
    06:00 +23°C° 0 mm 1 m/S 684 mmHg 17%
    07:00 +25°C° 0 mm 1 m/S 685 mmHg 15%
    08:00 +27°C° 0 mm 2 m/S 685 mmHg 14%
    09:00 +29°C° 0 mm 2 m/S 685 mmHg 13%
    10:00 +31°C° 0 mm 3 m/S 685 mmHg 11%
    11:00 +33°C° 0 mm 3 m/S 684 mmHg 11%
    12:00 +34°C° 0 mm 4 m/S 684 mmHg 10%
    13:00 +36°C° 0 mm 5 m/S 684 mmHg 10%
    14:00 +36°C° 0 mm 5 m/S 684 mmHg 10%
    15:00 +36°C° 0 mm 5 m/S 684 mmHg 10%
    16:00 +36°C° 0 mm 5 m/S 683 mmHg 10%
    17:00 +32°C° 0 mm 4 m/S 683 mmHg 13%
    18:00 +27°C° 0 mm 2 m/S 683 mmHg 16%
    19:00 +24°C° 0 mm 1 m/S 682 mmHg 20%
    20:00 +24°C° 0 mm 1 m/S 682 mmHg 19%
    21:00 +23°C° 0 mm 2 m/S 682 mmHg 19%
    22:00 +23°C° 0 mm 2 m/S 682 mmHg 19%
    23:00 +23°C° 0 mm 2 m/S 682 mmHg 19%

    Morgen, 20 September, Freitag

    Zeit Temperatur Niederschläge Wind Luftdruck Luftfeuchtigkeit
    00:00 +23°C° 0 mm 2 m/S 682 mmHg 19%
    01:00 +21°C° 0 mm 2 m/S 682 mmHg 19%
    02:00 +21°C° 0 mm 2 m/S 682 mmHg 21%
    03:00 +20°C° 0 mm 2 m/S 681 mmHg 22%
    04:00 +20°C° 0 mm 1 m/S 681 mmHg 23%
    05:00 +22°C° 0 mm 1 m/S 682 mmHg 21%
    06:00 +24°C° 0 mm 1 m/S 683 mmHg 19%
    07:00 +26°C° 0 mm 1 m/S 683 mmHg 17%
    08:00 +28°C° 0 mm 1 m/S 684 mmHg 15%
    09:00 +29°C° 0 mm 2 m/S 684 mmHg 14%
    10:00 +31°C° 0 mm 3 m/S 684 mmHg 12%
    11:00 +34°C° 0 mm 4 m/S 684 mmHg 12%
    12:00 +35°C° 0 mm 5 m/S 683 mmHg 11%
    13:00 +36°C° 0 mm 6 m/S 683 mmHg 10%
    14:00 +36°C° 0 mm 7 m/S 683 mmHg 10%
    15:00 +37°C° 0 mm 8 m/S 683 mmHg 11%
    16:00 +37°C° 0 mm 8 m/S 683 mmHg 11%
    17:00 +33°C° 0 mm 6 m/S 682 mmHg 14%
    18:00 +28°C° 0 mm 5 m/S 682 mmHg 17%
    19:00 +25°C° 0 mm 3 m/S 682 mmHg 21%
    20:00 +24°C° 0 mm 2 m/S 682 mmHg 24%
    21:00 +21°C° 0 mm 2 m/S 681 mmHg 27%
    22:00 +21°C° 0 mm 1 m/S 681 mmHg 31%
    23:00 +20°C° 0 mm 1 m/S 681 mmHg 31%

    übermorgen, 21 September, Samstag

    Zeit Temperatur Niederschläge Wind Luftdruck Luftfeuchtigkeit
    00:00 +20°C° 0 mm 1 m/S 680 mmHg 30%
    01:00 +20°C° 0 mm 1 m/S 680 mmHg 30%
    02:00 +19°C° 0 mm 1 m/S 680 mmHg 32%
    03:00 +19°C° 0 mm 1 m/S 679 mmHg 34%
    04:00 +18°C° 0 mm 1 m/S 679 mmHg 35%
    05:00 +21°C° 0 mm 1 m/S 680 mmHg 30%
    06:00 +23°C° 0 mm 1 m/S 680 mmHg 24%
    07:00 +25°C° 0 mm 2 m/S 681 mmHg 18%
    08:00 +28°C° 0 mm 2 m/S 681 mmHg 15%
    09:00 +31°C° 0 mm 2 m/S 681 mmHg 12%
    10:00 +34°C° 0 mm 3 m/S 681 mmHg 9%
    11:00 +35°C° 0 mm 3 m/S 681 mmHg 9%
    12:00 +36°C° 0 mm 3 m/S 680 mmHg 8%
    13:00 +38°C° 0 mm 3 m/S 680 mmHg 7%
    14:00 +37°C° 0 mm 3 m/S 680 mmHg 7%
    15:00 +37°C° 0 mm 4 m/S 679 mmHg 7%
    16:00 +37°C° 0 mm 4 m/S 679 mmHg 7%
    17:00 +33°C° 0 mm 3 m/S 678 mmHg 15%
    18:00 +27°C° 0 mm 2 m/S 678 mmHg 23%
    19:00 +20°C° 0 mm 0 m/S 677 mmHg 31%
    20:00 +22°C° 0 mm 1 m/S 677 mmHg 30%
    21:00 +22°C° 0 mm 1 m/S 677 mmHg 30%
    22:00 +21°C° 0 mm 2 m/S 678 mmHg 29%
    23:00 +21°C° 0 mm 2 m/S 677 mmHg 31%

    22 September, Sonntag

    Zeit Temperatur Niederschläge Wind Luftdruck Luftfeuchtigkeit
    00:00 +21°C° 0 mm 2 m/S 677 mmHg 32%
    01:00 +21°C° 0 mm 1 m/S 677 mmHg 34%
    02:00 +21°C° 0 mm 1 m/S 677 mmHg 34%
    03:00 +21°C° 0 mm 1 m/S 677 mmHg 34%
    04:00 +19°C° 0 mm 2 m/S 677 mmHg 35%
    05:00 +22°C° 0 mm 1 m/S 678 mmHg 27%
    06:00 +24°C° 0 mm 1 m/S 680 mmHg 19%
    07:00 +26°C° 0 mm 1 m/S 681 mmHg 11%
    08:00 +27°C° 0 mm 3 m/S 682 mmHg 16%
    09:00 +28°C° 0 mm 5 m/S 682 mmHg 22%
    10:00 +28°C° 0 mm 7 m/S 683 mmHg 28%
    11:00 +29°C° 0 mm 7 m/S 683 mmHg 31%
    12:00 +29°C° 0 mm 8 m/S 684 mmHg 34%
    13:00 +29°C° 0 mm 8 m/S 684 mmHg 37%
    14:00 +29°C° 0 mm 8 m/S 684 mmHg 37%
    15:00 +28°C° 0 mm 7 m/S 684 mmHg 36%
    16:00 +28°C° 0 mm 7 m/S 684 mmHg 36%
    17:00 +26°C° 0 mm 6 m/S 685 mmHg 40%
    18:00 +22°C° 0 mm 4 m/S 685 mmHg 44%
    19:00 +20°C° 0 mm 3 m/S 685 mmHg 47%
    20:00 +19°C° 0 mm 3 m/S 685 mmHg 51%
    21:00 +18°C° 0 mm 2 m/S 685 mmHg 54%
    22:00 +16°C° 0 mm 2 m/S 685 mmHg 57%
    23:00 +16°C° 0 mm 2 m/S 684 mmHg 60%

    23 September, Montag

    Zeit Temperatur Niederschläge Wind Luftdruck Luftfeuchtigkeit
    00:00 +15°C° 0 mm 1 m/S 684 mmHg 62%
    01:00 +14°C° 0 mm 1 m/S 683 mmHg 65%
    02:00 +14°C° 0 mm 1 m/S 683 mmHg 68%
    03:00 +13°C° 0 mm 1 m/S 682 mmHg 71%
    04:00 +13°C° 0 mm 1 m/S 682 mmHg 74%
    05:00 +14°C° 0 mm 1 m/S 682 mmHg 66%
    06:00 +16°C° 0 mm 1 m/S 683 mmHg 58%
    07:00 +19°C° 0 mm 1 m/S 683 mmHg 50%
    08:00 +21°C° 0 mm 1 m/S 683 mmHg 45%
    09:00 +23°C° 0 mm 2 m/S 683 mmHg 39%
    10:00 +26°C° 0 mm 2 m/S 683 mmHg 34%
    11:00 +27°C° 0 mm 2 m/S 683 mmHg 31%
    12:00 +29°C° 0 mm 3 m/S 683 mmHg 28%
    13:00 +30°C° 0 mm 3 m/S 682 mmHg 25%
    14:00 +31°C° 0 mm 3 m/S 682 mmHg 24%
    15:00 +31°C° 0 mm 3 m/S 682 mmHg 23%
    16:00 +31°C° 0 mm 3 m/S 682 mmHg 22%
    17:00 +28°C° 0 mm 2 m/S 682 mmHg 30%
    18:00 +24°C° 0 mm 2 m/S 682 mmHg 38%
    19:00 +21°C° 0 mm 1 m/S 681 mmHg 47%
    20:00 +20°C° 0 mm 1 m/S 682 mmHg 48%
    21:00 +20°C° 0 mm 1 m/S 682 mmHg 50%
    22:00 +19°C° 0 mm 1 m/S 682 mmHg 51%
    23:00 +18°C° 0 mm 1 m/S 682 mmHg 53%

    24 September, Dienstag

    Zeit Temperatur Niederschläge Wind Luftdruck Luftfeuchtigkeit
    00:00 +16°C° 0 mm 1 m/S 682 mmHg 55%
    01:00 +16°C° 0 mm 1 m/S 682 mmHg 57%
    02:00 +15°C° 0 mm 1 m/S 682 mmHg 59%
    03:00 +14°C° 0 mm 1 m/S 682 mmHg 61%
    04:00 +13°C° 0 mm 1 m/S 682 mmHg 63%
    05:00 +14°C° 0 mm 0 m/S 683 mmHg 56%
    06:00 +16°C° 0 mm 0 m/S 684 mmHg 49%
    07:00 +18°C° 0 mm 0 m/S 685 mmHg 43%
    08:00 +21°C° 0 mm 1 m/S 685 mmHg 38%
    09:00 +23°C° 0 mm 2 m/S 685 mmHg 34%
    10:00 +25°C° 0 mm 3 m/S 685 mmHg 30%
    11:00 +26°C° 0 mm 4 m/S 685 mmHg 27%
    12:00 +28°C° 0 mm 4 m/S 685 mmHg 24%
    13:00 +29°C° 0 mm 5 m/S 684 mmHg 21%
    14:00 +29°C° 0 mm 5 m/S 684 mmHg 20%
    15:00 +29°C° 0 mm 5 m/S 684 mmHg 19%
    16:00 +29°C° 0 mm 5 m/S 684 mmHg 18%
    17:00 +26°C° 0 mm 4 m/S 683 mmHg 22%
    18:00 +23°C° 0 mm 4 m/S 683 mmHg 26%
    19:00 +20°C° 0 mm 3 m/S 683 mmHg 29%
    20:00 +19°C° 0 mm 2 m/S 683 mmHg 31%
    21:00 +18°C° 0 mm 2 m/S 682 mmHg 33%
    22:00 +18°C° 0 mm 1 m/S 682 mmHg 35%
    23:00 +16°C° 0 mm 1 m/S 682 mmHg 38%
    Mehr zeigen